Weather History for CYXD - September, 2013

Change the Weather History Date:

Saturday, September 7, 2013

  Actual Average Record
Temperature  
Mean Temperature 60 °F -  
Max Temperature 62 °F 62 °F 86 °F (2003)
Min Temperature 57 °F 45 °F 37 °F (2008)
Degree Days  
Heating Degree Days 6    
Growing Degree Days 10 (Base 50)    
Moisture  
Dew Point 53 °F    
Average Humidity 79    
Maximum Humidity 94    
Minimum Humidity 50    
Precipitation  
Precipitation 0.08 in - - ()
Sea Level Pressure  
Sea Level Pressure 30.19 in    
Wind  
Wind Speed 4 mph ()    
Max Wind Speed 12 mph    
Max Gust Speed -    
Visibility 8.9 miles    
Events Rain    
Averages and records for this station are not official NWS values.
T = Trace of Precipitation, MM = Missing Value Source: Averaged Metar Reports

Daily Weather History Graph

Daily Weather History Graph

Search for Another Location

Airport or City:

Trip Planner

Search our weather history database for the weather conditions in past years. The results will help you decide how hot, cold, wet, or windy it might be!

Date:

Astronomy

Sep. 07, 2013 Rise Set
Actual Time 6:54 AM MDT 8:08 PM MDT
Civil Twilight 6:18 AM MDT 8:44 PM MDT
Nautical Twilight 5:34 AM MDT 9:28 PM MDT
Astronomical Twilight 4:45 AM MDT 10:16 PM MDT
Moon 9:40 AM MDT (9/7) 8:37 PM MDT (9/7)
Length of Visible Light 14h 26m
Length of Day
13h 14m
Waxing Crescent, 5% of the Moon is Illuminated
Sep 7
Waxing Crescent
Sep 12
First Quarter
Sep 19
Full
Sep 26
Last Quarter
Oct 4
New

Hourly Weather History & Observations

Time (MDT) Temp. Dew Point Humidity Pressure Visibility Wind Dir Wind Speed Gust Speed Precip Events Conditions
12:00 AM 64 °F 50 °F 50% 30.24 in 9 mi East 4.6 mph - -  
12:00 AM 64.4 °F 50.0 °F 59% 30.24 in 9.0 mi East 4.6 mph - N/A   Scattered Clouds
1:00 AM 62.6 °F 50.0 °F 63% 30.24 in 9.0 mi NE 5.8 mph - N/A   Clear
2:00 AM 62.6 °F 50.0 °F 63% 30.24 in 9.0 mi ENE 4.6 mph - N/A   Partly Cloudy
3:00 AM 62 °F 51 °F 58% 30.23 in 9 mi ENE 3.5 mph - -  
3:00 AM 62.6 °F 51.8 °F 68% 30.23 in 9.0 mi East 3.5 mph - N/A   Clear
4:00 AM 60.8 °F 51.8 °F 72% 30.23 in 9.0 mi South 2.3 mph - N/A   Clear
5:00 AM 60.8 °F 51.8 °F 72% 30.24 in 9.0 mi South 2.3 mph - N/A   Mostly Cloudy
6:00 AM 60 °F 52 °F 69% 30.23 in 9 mi East 2.3 mph - -  
6:00 AM 60.8 °F 51.8 °F 72% 30.23 in 9.0 mi East 2.3 mph - N/A   Clear
7:00 AM 60.8 °F 53.6 °F 77% 30.22 in 9.0 mi ESE 3.5 mph - N/A   Clear
8:00 AM 59.0 °F 53.6 °F 82% 30.24 in 9.0 mi East 3.5 mph - N/A   Clear
9:00 AM 60 °F 52 °F 68% 30.23 in 9 mi East 4.6 mph - -  
9:00 AM 60.8 °F 51.8 °F 72% 30.23 in 9.0 mi ENE 4.6 mph - N/A   Clear
10:00 AM 60.8 °F 53.6 °F 77% 30.24 in 9.0 mi East 2.3 mph - N/A   Partly Cloudy
11:00 AM 62.6 °F 51.8 °F 68% 30.24 in 9.0 mi SE 3.5 mph - N/A   Partly Cloudy
12:00 PM 63 °F 53 °F 60% 30.24 in 9 mi SSE 6.9 mph - -  
12:00 PM 62.6 °F 51.8 °F 68% 30.24 in 9.0 mi SSE 4.6 mph - N/A   Partly Cloudy
1:00 PM 62.6 °F 53.6 °F 72% 30.22 in 9.0 mi SSE 5.8 mph - N/A   Partly Cloudy
1:42 PM 62.6 °F 53.6 °F 72% 30.21 in 9.0 mi SSE 8.1 mph - N/A Rain Light Rain
1:49 PM 60.8 °F 53.6 °F 77% 30.21 in 9.0 mi SSE 8.1 mph - N/A Rain Light Rain
1:57 PM 60.8 °F 53.6 °F 77% 30.21 in 9.0 mi SE 9.2 mph - N/A Rain Light Rain
2:00 PM 60.8 °F 53.6 °F 77% 30.23 in 9.0 mi SE 11.5 mph - N/A Rain Light Rain
2:33 PM 59.0 °F 55.4 °F 88% 30.21 in 9.0 mi SSE 9.2 mph - N/A Rain Light Rain
3:00 PM 59.0 °F 55.4 °F 88% 30.22 in 9.0 mi South 8.1 mph - N/A Rain Light Rain
3:47 PM 59.0 °F 53.6 °F 82% 30.19 in 7.0 mi SE 5.8 mph - N/A Rain Rain
3:48 PM 59.0 °F 53.6 °F 82% 30.19 in 7.0 mi SE 5.8 mph - N/A Rain Rain
4:00 PM 59.0 °F 53.6 °F 82% 30.20 in 9.0 mi SE 5.8 mph - N/A Rain Light Rain
5:00 PM 57.2 °F 55.4 °F 94% 30.18 in 7.0 mi SE 4.6 mph - N/A Rain Rain
5:42 PM 57.2 °F 55.4 °F 94% 30.15 in 9.0 mi ESE 4.6 mph - N/A Rain Light Rain
6:00 PM 58 °F 55 °F 86% 30.16 in 9 mi SSE 2.3 mph - -   Unknown Precipitation
6:00 PM 57.2 °F 55.4 °F 94% 30.16 in 9.0 mi SSE 2.3 mph - N/A Rain Light Rain
7:00 PM 57.2 °F 55.4 °F 94% 30.14 in 9.0 mi ESE 5.8 mph - N/A Rain Light Rain
7:02 PM 57.2 °F 55.4 °F 94% 30.12 in 9.0 mi ESE 5.8 mph - N/A   Mostly Cloudy
8:00 PM 57.2 °F 53.6 °F 88% 30.12 in 9.0 mi East 5.8 mph - N/A   Overcast
9:00 PM 57.2 °F 53.6 °F 88% 30.12 in 9.0 mi ESE 4.6 mph - N/A   Mostly Cloudy
9:28 PM 57.2 °F 55.4 °F 94% 30.10 in 9.0 mi SE 4.6 mph - N/A   Overcast
9:57 PM 57.2 °F 55.4 °F 94% 30.10 in 9.0 mi SE 5.8 mph - N/A   Overcast
10:00 PM 57.2 °F 55.4 °F 94% 30.12 in 9.0 mi SE 6.9 mph - N/A   Overcast
10:08 PM 57.2 °F 55.4 °F 94% 30.09 in 9.0 mi ESE 4.6 mph - N/A   Overcast
11:00 PM 57.2 °F 55.4 °F 94% 30.09 in 9.0 mi SE 6.9 mph - N/A   Mostly Cloudy
11:30 PM 59.0 °F 55.4 °F 88% 30.06 in 9.0 mi SE 6.9 mph - N/A   Partly Cloudy
11:50 PM 57.2 °F 55.4 °F 94% 30.06 in 9.0 mi ESE 6.9 mph - N/A   Mostly Cloudy